CEB912 RPLL-RPMR

Flight info

Callsign CEB912
Flight time 1h 32m
Altitude 34000
Route VERDE2R VERDE A461 SAJ W3 IOO B472 COT W19 MELBY MELBY3R
Aircraft A320/M-SDE3FGHIRWY/LB1

Departure

Time 2026-04-26 05:44
Airport Ninoy Aquino International Airport (RPLL)

Arrival

Time 2026-04-26 07:16
Airport General Santos International Airport (RPMR)
Time Latitude Longitude Altitude Speed Heading
2026-04-26 05:35 14.50862 121.01337 68 ft 0 kts 329°
2026-04-26 05:37 14.50854 121.01342 60 ft 2 kts 328°
2026-04-26 05:37 14.50840 121.01350 61 ft 2 kts 329°
2026-04-26 05:37 14.50826 121.01359 59 ft 2 kts 330°
2026-04-26 05:37 14.50812 121.01367 64 ft 2 kts 340°
2026-04-26 05:38 14.50795 121.01371 60 ft 2 kts 318°
2026-04-26 05:38 14.50791 121.01385 59 ft 2 kts 249°
2026-04-26 05:38 14.50794 121.01394 59 ft 1 kts 241°
2026-04-26 05:38 14.50796 121.01397 59 ft 0 kts 240°
2026-04-26 05:39 14.50779 121.01368 61 ft 9 kts 240°
2026-04-26 05:40 14.50729 121.01316 67 ft 12 kts 192°
2026-04-26 05:40 14.50651 121.01289 61 ft 15 kts 231°
2026-04-26 05:40 14.50595 121.01190 67 ft 16 kts 240°
2026-04-26 05:40 14.50544 121.01099 61 ft 14 kts 242°
2026-04-26 05:41 14.50496 121.01010 65 ft 14 kts 240°
2026-04-26 05:41 14.50442 121.00912 61 ft 18 kts 240°
2026-04-26 05:41 14.50372 121.00786 66 ft 22 kts 240°
2026-04-26 05:41 14.50288 121.00636 63 ft 26 kts 240°
2026-04-26 05:42 14.50193 121.00464 59 ft 29 kts 240°
2026-04-26 05:42 14.50089 121.00279 63 ft 30 kts 240°
2026-04-26 05:42 14.49983 121.00091 64 ft 31 kts 240°
2026-04-26 05:42 14.49899 120.99971 66 ft 12 kts 204°
2026-04-26 05:43 14.49817 121.00002 64 ft 14 kts 131°
2026-04-26 05:43 14.49835 121.00099 64 ft 16 kts 60°
2026-04-26 05:43 14.49922 121.00257 63 ft 49 kts 60°
2026-04-26 05:43 14.50206 121.00783 64 ft 114 kts 55°
2026-04-26 05:44 14.50690 121.01643 74 ft 162 kts 61°
2026-04-26 05:44 14.51269 121.02629 697 ft 160 kts 60°
2026-04-26 05:44 14.51878 121.03596 1386 ft 163 kts 59°
2026-04-26 05:44 14.52464 121.04617 2003 ft 168 kts 63°
2026-04-26 05:45 14.53055 121.05728 2408 ft 190 kts 63°
2026-04-26 05:45 14.53724 121.06989 2854 ft 208 kts 63°
2026-04-26 05:45 14.54455 121.08351 3179 ft 229 kts 63°
2026-04-26 05:45 14.55276 121.09867 3510 ft 254 kts 63°
2026-04-26 05:46 14.56140 121.11509 4141 ft 264 kts 68°
2026-04-26 05:46 14.56412 121.13370 4950 ft 266 kts 99°
2026-04-26 05:46 14.55810 121.15186 5721 ft 272 kts 120°
2026-04-26 05:46 14.54513 121.16629 6437 ft 280 kts 146°
2026-04-26 05:47 14.52685 121.17331 7130 ft 287 kts 174°
2026-04-26 05:47 14.50686 121.17203 7865 ft 290 kts 188°
2026-04-26 05:47 14.48673 121.16907 8646 ft 293 kts 188°
2026-04-26 05:47 14.46647 121.16613 9394 ft 296 kts 188°
2026-04-26 05:48 14.44594 121.16319 10107 ft 299 kts 188°
2026-04-26 05:48 14.42475 121.16018 10444 ft 318 kts 188°
2026-04-26 05:48 14.40209 121.15698 10637 ft 339 kts 188°
2026-04-26 05:48 14.37837 121.15366 11136 ft 347 kts 188°
2026-04-26 05:49 14.35426 121.15031 11767 ft 350 kts 188°
2026-04-26 05:49 14.30546 121.14352 13025 ft 357 kts 188°
2026-04-26 05:49 14.28074 121.14006 13634 ft 360 kts 188°
2026-04-26 05:50 14.25577 121.13657 14181 ft 364 kts 188°
2026-04-26 05:50 14.23061 121.13307 14735 ft 366 kts 189°
2026-04-26 05:50 14.20524 121.12950 15277 ft 369 kts 189°
2026-04-26 05:50 14.17974 121.12593 15825 ft 371 kts 189°
2026-04-26 05:51 14.15401 121.12235 16358 ft 374 kts 189°
2026-04-26 05:51 14.12841 121.11882 16855 ft 377 kts 189°
2026-04-26 05:51 14.10231 121.11519 17386 ft 380 kts 189°
2026-04-26 05:51 14.07601 121.11152 17905 ft 383 kts 189°
2026-04-26 05:52 14.04954 121.10781 18374 ft 386 kts 189°
2026-04-26 05:52 14.02283 121.10408 18810 ft 388 kts 189°
2026-04-26 05:52 13.99688 121.10044 19241 ft 391 kts 189°
2026-04-26 05:52 13.96979 121.09663 19683 ft 393 kts 189°
2026-04-26 05:53 13.94262 121.09280 20108 ft 396 kts 189°
2026-04-26 05:53 13.91518 121.08897 20534 ft 399 kts 189°
2026-04-26 05:53 13.88755 121.08513 20957 ft 401 kts 189°
2026-04-26 05:53 13.85979 121.08128 21381 ft 404 kts 189°
2026-04-26 05:54 13.83188 121.07741 21775 ft 406 kts 189°
2026-04-26 05:54 13.80364 121.07350 22184 ft 409 kts 189°
2026-04-26 05:54 13.77574 121.06963 22585 ft 412 kts 189°
2026-04-26 05:54 13.74723 121.06568 22985 ft 414 kts 189°
2026-04-26 05:55 13.71855 121.06168 23380 ft 417 kts 189°
2026-04-26 05:55 13.68964 121.05763 23725 ft 419 kts 189°
2026-04-26 05:55 13.66067 121.05358 24066 ft 421 kts 189°
2026-04-26 05:55 13.63151 121.04952 24408 ft 423 kts 189°
2026-04-26 05:56 13.60222 121.04545 24734 ft 425 kts 189°
2026-04-26 05:56 13.57279 121.04137 25054 ft 427 kts 189°
2026-04-26 05:56 13.54335 121.03729 25364 ft 429 kts 189°
2026-04-26 05:56 13.51365 121.03321 25684 ft 431 kts 188°
2026-04-26 05:57 13.48394 121.03187 25965 ft 434 kts 181°
2026-04-26 05:57 13.45359 121.03220 26271 ft 436 kts 181°
2026-04-26 05:57 13.42312 121.03255 26575 ft 438 kts 181°
2026-04-26 05:57 13.39264 121.03287 26858 ft 440 kts 181°
2026-04-26 05:58 13.36196 121.03316 27143 ft 442 kts 181°
2026-04-26 05:58 13.33115 121.03346 27445 ft 443 kts 181°
2026-04-26 05:58 13.30017 121.03376 27726 ft 445 kts 181°
2026-04-26 05:58 13.26919 121.03406 28010 ft 447 kts 181°
2026-04-26 05:59 13.23800 121.03437 28285 ft 448 kts 181°
2026-04-26 05:59 13.20671 121.03468 28575 ft 449 kts 181°
2026-04-26 05:59 13.17958 121.03493 28799 ft 451 kts 181°
2026-04-26 05:59 13.14804 121.03522 29082 ft 453 kts 181°
2026-04-26 06:00 13.11653 121.03551 29351 ft 454 kts 181°
2026-04-26 06:00 13.08483 121.03586 29622 ft 456 kts 181°
2026-04-26 06:00 13.05311 121.03624 29888 ft 457 kts 181°
2026-04-26 06:00 13.02166 121.03662 30116 ft 458 kts 181°
2026-04-26 06:01 12.98969 121.03698 30335 ft 459 kts 181°
2026-04-26 06:01 12.95765 121.03732 30573 ft 459 kts 181°
2026-04-26 06:01 12.92572 121.03762 30808 ft 460 kts 181°
2026-04-26 06:01 12.89364 121.03790 31081 ft 460 kts 181°
2026-04-26 06:02 12.86165 121.03818 31422 ft 458 kts 181°
2026-04-26 06:02 12.83020 121.03847 31751 ft 457 kts 181°
2026-04-26 06:02 12.79838 121.03876 32101 ft 455 kts 181°
2026-04-26 06:02 12.76674 121.03907 32455 ft 454 kts 181°
2026-04-26 06:03 12.74581 121.03928 32664 ft 453 kts 181°
2026-04-26 06:03 12.70826 121.03974 33052 ft 451 kts 181°
2026-04-26 06:03 12.67691 121.04008 33385 ft 450 kts 181°
2026-04-26 06:04 12.64562 121.04036 33715 ft 449 kts 181°
2026-04-26 06:04 12.61438 121.04061 33862 ft 448 kts 181°
2026-04-26 06:04 12.58340 121.04088 33879 ft 441 kts 181°
2026-04-26 06:05 12.52348 121.04147 33877 ft 437 kts 181°
2026-04-26 06:05 12.46256 121.04208 33871 ft 436 kts 181°
2026-04-26 06:06 12.40176 121.04414 33864 ft 438 kts 172°
2026-04-26 06:06 12.34448 121.06432 33863 ft 442 kts 151°
2026-04-26 06:06 12.31925 121.08250 33855 ft 445 kts 140°
2026-04-26 06:07 12.29661 121.10417 33853 ft 445 kts 139°
2026-04-26 06:07 12.25144 121.14752 33850 ft 445 kts 139°
2026-04-26 06:08 12.20639 121.19044 33854 ft 445 kts 139°
2026-04-26 06:08 12.16109 121.23367 33854 ft 445 kts 139°
2026-04-26 06:09 12.11576 121.27701 33857 ft 445 kts 139°
2026-04-26 06:09 12.07050 121.32023 33855 ft 445 kts 139°
2026-04-26 06:10 12.02517 121.36345 33859 ft 445 kts 139°
2026-04-26 06:10 11.98012 121.40635 33860 ft 445 kts 139°
2026-04-26 06:11 11.93495 121.44949 33861 ft 444 kts 139°
2026-04-26 06:11 11.88979 121.49260 33856 ft 444 kts 139°
2026-04-26 06:12 11.84458 121.53563 33854 ft 443 kts 139°
2026-04-26 06:12 11.79946 121.57860 33853 ft 443 kts 139°
2026-04-26 06:13 11.75664 121.61940 33856 ft 443 kts 139°
2026-04-26 06:13 11.71169 121.66222 33853 ft 443 kts 139°
2026-04-26 06:14 11.67411 121.69800 33853 ft 442 kts 139°
2026-04-26 06:14 11.62901 121.74082 33850 ft 442 kts 139°
2026-04-26 06:15 11.58408 121.78354 33850 ft 441 kts 139°
2026-04-26 06:15 11.53923 121.82619 33850 ft 441 kts 139°
2026-04-26 06:16 11.49434 121.86877 33847 ft 440 kts 139°
2026-04-26 06:16 11.44950 121.91127 33852 ft 440 kts 139°
2026-04-26 06:17 11.40472 121.95380 33850 ft 439 kts 139°
2026-04-26 06:17 11.36113 121.99516 33855 ft 439 kts 139°
2026-04-26 06:18 11.31643 122.03756 33852 ft 439 kts 139°
2026-04-26 06:18 11.27170 122.07984 33853 ft 438 kts 139°
2026-04-26 06:19 11.23455 122.11499 33858 ft 438 kts 139°
2026-04-26 06:19 11.18259 122.16426 33860 ft 438 kts 139°
2026-04-26 06:20 11.13820 122.20620 33858 ft 438 kts 139°
2026-04-26 06:20 11.09354 122.24842 33861 ft 438 kts 139°
2026-04-26 06:21 11.05612 122.28381 33859 ft 438 kts 139°
2026-04-26 06:21 11.01147 122.32600 33855 ft 438 kts 139°
2026-04-26 06:22 10.96675 122.36820 33851 ft 438 kts 139°
2026-04-26 06:22 10.92201 122.41040 33848 ft 438 kts 139°
2026-04-26 06:23 10.89766 122.43338 33852 ft 438 kts 139°
2026-04-26 06:23 10.89421 122.43660 33854 ft 436 kts 142°
2026-04-26 06:23 10.87577 122.45369 33380 ft 435 kts 140°
2026-04-26 06:24 10.85513 122.47308 34270 ft 415 kts 139°
2026-04-26 06:24 10.83256 122.49148 34426 ft 416 kts 148°
2026-04-26 06:24 10.80995 122.50451 34574 ft 417 kts 156°
2026-04-26 06:24 10.78388 122.51671 34400 ft 421 kts 156°
2026-04-26 06:25 10.75756 122.52902 33975 ft 426 kts 156°
2026-04-26 06:25 10.73077 122.54157 33805 ft 430 kts 156°
2026-04-26 06:25 10.70354 122.55443 33839 ft 432 kts 156°
2026-04-26 06:26 10.66189 122.57418 33835 ft 433 kts 156°
2026-04-26 06:26 10.60688 122.60028 33831 ft 433 kts 156°
2026-04-26 06:27 10.55782 122.62351 33830 ft 434 kts 156°
2026-04-26 06:27 10.53985 122.63199 33833 ft 434 kts 156°
2026-04-26 06:28 10.50710 122.64997 33853 ft 433 kts 154°
2026-04-26 06:28 10.45323 122.67524 33839 ft 434 kts 158°
2026-04-26 06:29 10.40353 122.69684 33833 ft 434 kts 157°
2026-04-26 06:29 10.36263 122.71522 33834 ft 434 kts 156°
2026-04-26 06:30 10.33163 122.72992 33826 ft 435 kts 155°
2026-04-26 06:30 10.27685 122.75597 33834 ft 435 kts 155°
2026-04-26 06:31 10.22194 122.78194 33829 ft 435 kts 155°
2026-04-26 06:31 10.16698 122.80788 33833 ft 435 kts 155°
2026-04-26 06:32 10.11199 122.83370 33838 ft 436 kts 155°
2026-04-26 06:32 10.05705 122.85964 33836 ft 436 kts 155°
2026-04-26 06:33 10.00205 122.88555 33842 ft 436 kts 155°
2026-04-26 06:33 9.94700 122.91141 33850 ft 436 kts 155°
2026-04-26 06:34 9.89225 122.93715 33855 ft 436 kts 155°
2026-04-26 06:34 9.83726 122.96303 33858 ft 435 kts 155°
2026-04-26 06:35 9.78227 122.98895 33855 ft 435 kts 155°
2026-04-26 06:35 9.73262 123.01227 33854 ft 435 kts 155°
2026-04-26 06:36 9.67799 123.03791 33852 ft 434 kts 155°
2026-04-26 06:36 9.62303 123.06373 33850 ft 434 kts 155°
2026-04-26 06:37 9.56819 123.08952 33846 ft 434 kts 155°
2026-04-26 06:37 9.51335 123.11533 33839 ft 434 kts 155°
2026-04-26 06:38 9.45887 123.14093 33834 ft 434 kts 155°
2026-04-26 06:38 9.40395 123.16663 33829 ft 435 kts 155°
2026-04-26 06:39 9.34901 123.19235 33827 ft 435 kts 155°
2026-04-26 06:39 9.29394 123.21813 33828 ft 435 kts 155°
2026-04-26 06:40 9.23889 123.24395 33826 ft 436 kts 155°
2026-04-26 06:40 9.18421 123.26959 33831 ft 436 kts 155°
2026-04-26 06:41 9.12911 123.29537 33822 ft 436 kts 155°
2026-04-26 06:41 9.07402 123.32115 33826 ft 437 kts 155°
2026-04-26 06:42 9.01880 123.34695 33822 ft 437 kts 155°
2026-04-26 06:42 8.96360 123.37281 33818 ft 437 kts 155°
2026-04-26 06:43 8.90834 123.39871 33819 ft 437 kts 155°
2026-04-26 06:43 8.85311 123.42456 33822 ft 438 kts 155°
2026-04-26 06:44 8.79781 123.45041 33831 ft 438 kts 155°
2026-04-26 06:44 8.74240 123.47632 33829 ft 438 kts 155°
2026-04-26 06:45 8.68840 123.50160 33842 ft 438 kts 155°
2026-04-26 06:45 8.63299 123.52738 33846 ft 438 kts 155°
2026-04-26 06:46 8.57763 123.55321 33854 ft 438 kts 155°
2026-04-26 06:46 8.52232 123.57908 33856 ft 437 kts 155°
2026-04-26 06:47 8.46700 123.60496 33857 ft 437 kts 155°
2026-04-26 06:47 8.41223 123.63050 33859 ft 437 kts 155°
2026-04-26 06:48 8.35700 123.65625 33861 ft 436 kts 155°
2026-04-26 06:48 8.30176 123.68198 33854 ft 436 kts 155°
2026-04-26 06:49 8.24694 123.70754 33849 ft 436 kts 155°
2026-04-26 06:49 8.19181 123.73322 33842 ft 436 kts 155°
2026-04-26 06:50 8.13665 123.75884 33841 ft 437 kts 155°
2026-04-26 06:50 8.08148 123.78454 33841 ft 437 kts 155°
2026-04-26 06:51 8.02627 123.81032 33834 ft 437 kts 155°
2026-04-26 06:51 7.94341 123.84893 33833 ft 437 kts 155°
2026-04-26 06:52 7.88810 123.87457 33829 ft 438 kts 155°
2026-04-26 06:52 7.83272 123.90031 33827 ft 439 kts 155°
2026-04-26 06:53 7.77717 123.92620 33831 ft 440 kts 155°
2026-04-26 06:53 7.72154 123.95203 33833 ft 440 kts 155°
2026-04-26 06:54 7.66585 123.97787 33829 ft 441 kts 155°
2026-04-26 06:54 7.61006 124.00379 33830 ft 441 kts 155°
2026-04-26 06:55 7.55462 124.02953 33827 ft 441 kts 155°
2026-04-26 06:55 7.49880 124.05545 33799 ft 442 kts 155°
2026-04-26 06:56 7.44292 124.08133 33792 ft 446 kts 154°
2026-04-26 06:56 7.38639 124.10759 33788 ft 448 kts 154°
2026-04-26 06:57 7.32944 124.13406 32761 ft 459 kts 154°
2026-04-26 06:57 7.29995 124.14775 31388 ft 473 kts 154°
2026-04-26 06:57 7.26974 124.16173 30296 ft 481 kts 154°
2026-04-26 06:58 7.23953 124.17570 29909 ft 471 kts 154°
2026-04-26 06:58 7.21062 124.18908 29780 ft 455 kts 154°
2026-04-26 06:58 7.19183 124.19779 29657 ft 445 kts 154°
2026-04-26 06:58 7.15650 124.21802 29078 ft 433 kts 141°
2026-04-26 06:59 7.13316 124.23692 28543 ft 429 kts 140°
2026-04-26 06:59 7.11009 124.25572 27998 ft 425 kts 140°
2026-04-26 06:59 7.08718 124.27435 27466 ft 421 kts 140°
2026-04-26 06:59 7.07211 124.28658 27112 ft 419 kts 140°
2026-04-26 07:00 7.04937 124.30503 26578 ft 416 kts 140°
2026-04-26 07:00 7.02691 124.32320 26044 ft 413 kts 140°
2026-04-26 07:00 6.99733 124.34709 25367 ft 409 kts 140°
2026-04-26 07:00 6.98235 124.35918 25014 ft 407 kts 140°
2026-04-26 07:01 6.95324 124.38273 24354 ft 404 kts 140°
2026-04-26 07:01 6.93840 124.39475 23582 ft 408 kts 140°
2026-04-26 07:01 6.91596 124.41296 22004 ft 418 kts 140°
2026-04-26 07:01 6.89312 124.43151 20435 ft 426 kts 140°
2026-04-26 07:02 6.87016 124.45014 18876 ft 432 kts 140°
2026-04-26 07:02 6.84666 124.46920 17420 ft 434 kts 140°
2026-04-26 07:02 6.82332 124.48807 16477 ft 421 kts 140°
2026-04-26 07:02 6.80125 124.50588 16207 ft 393 kts 140°
2026-04-26 07:03 6.78140 124.52187 15978 ft 369 kts 140°
2026-04-26 07:03 6.76189 124.53760 15734 ft 348 kts 140°
2026-04-26 07:03 6.74349 124.55249 15496 ft 333 kts 140°
2026-04-26 07:03 6.72560 124.56703 15265 ft 328 kts 140°
2026-04-26 07:04 6.70793 124.58138 15028 ft 326 kts 140°
2026-04-26 07:04 6.69051 124.59550 14800 ft 325 kts 140°
2026-04-26 07:04 6.67293 124.60971 14576 ft 323 kts 140°
2026-04-26 07:04 6.65537 124.62369 14341 ft 322 kts 141°
2026-04-26 07:05 6.63794 124.63704 14118 ft 321 kts 141°
2026-04-26 07:05 6.62010 124.65043 13894 ft 319 kts 142°
2026-04-26 07:05 6.60232 124.66374 13673 ft 318 kts 142°
2026-04-26 07:05 6.58464 124.67703 13436 ft 317 kts 142°
2026-04-26 07:06 6.56728 124.69013 13193 ft 313 kts 141°
2026-04-26 07:06 6.55247 124.70131 12879 ft 311 kts 141°
2026-04-26 07:06 6.53512 124.71442 12508 ft 311 kts 141°
2026-04-26 07:06 6.51807 124.72730 12131 ft 310 kts 141°
2026-04-26 07:07 6.50083 124.74034 11741 ft 310 kts 141°
2026-04-26 07:07 6.48378 124.75324 11535 ft 303 kts 141°
2026-04-26 07:07 6.46700 124.76596 11201 ft 301 kts 141°
2026-04-26 07:07 6.45032 124.77862 10857 ft 300 kts 141°
2026-04-26 07:08 6.43364 124.79128 10534 ft 299 kts 141°
2026-04-26 07:08 6.41710 124.80384 10213 ft 297 kts 141°
2026-04-26 07:08 6.40065 124.81630 9889 ft 296 kts 141°
2026-04-26 07:08 6.38581 124.83025 9379 ft 289 kts 127°
2026-04-26 07:09 6.37559 124.84653 8805 ft 284 kts 117°
2026-04-26 07:09 6.36623 124.86357 8382 ft 273 kts 118°
2026-04-26 07:09 6.35721 124.87973 7999 ft 264 kts 118°
2026-04-26 07:09 6.34835 124.89552 7617 ft 255 kts 118°
2026-04-26 07:10 6.32193 124.94260 6455 ft 260 kts 118°
2026-04-26 07:11 6.30408 124.97453 5620 ft 264 kts 118°
2026-04-26 07:11 6.29508 124.99064 5193 ft 264 kts 118°
2026-04-26 07:11 6.28608 125.00679 4779 ft 265 kts 118°
2026-04-26 07:11 6.27706 125.02295 4352 ft 266 kts 118°
2026-04-26 07:12 6.26816 125.03891 4161 ft 255 kts 118°
2026-04-26 07:12 6.25970 125.05402 4092 ft 241 kts 118°
2026-04-26 07:12 6.24963 125.06689 3999 ft 233 kts 140°
2026-04-26 07:12 6.23569 125.07426 3780 ft 232 kts 164°
2026-04-26 07:13 6.21944 125.07660 3436 ft 234 kts 173°
2026-04-26 07:13 6.20327 125.07846 3091 ft 229 kts 173°
2026-04-26 07:13 6.18784 125.08028 2780 ft 217 kts 173°
2026-04-26 07:13 6.17357 125.08202 2497 ft 199 kts 173°
2026-04-26 07:14 6.16053 125.08363 2261 ft 180 kts 173°
2026-04-26 07:14 6.14857 125.08510 2038 ft 165 kts 174°
2026-04-26 07:14 6.13773 125.08643 1810 ft 151 kts 174°
2026-04-26 07:14 6.12765 125.08766 1629 ft 142 kts 173°
2026-04-26 07:15 6.11801 125.08884 1435 ft 138 kts 172°
2026-04-26 07:15 6.10847 125.09002 1266 ft 139 kts 171°
2026-04-26 07:15 6.09896 125.09119 1090 ft 136 kts 174°
2026-04-26 07:15 6.08966 125.09234 893 ft 134 kts 174°
2026-04-26 07:16 6.08059 125.09340 733 ft 134 kts 173°
2026-04-26 07:16 6.07135 125.09448 553 ft 132 kts 171°
2026-04-26 07:16 6.06295 125.09560 516 ft 101 kts 172°
2026-04-26 07:16 6.05849 125.09614 514 ft 38 kts 173°
2026-04-26 07:17 6.05641 125.09641 513 ft 29 kts 173°
2026-04-26 07:17 6.05471 125.09662 514 ft 20 kts 172°
2026-04-26 07:17 6.05402 125.09673 514 ft 7 kts 163°
2026-04-26 07:17 6.05398 125.09734 515 ft 14 kts 79°
2026-04-26 07:18 6.05413 125.09847 514 ft 14 kts 83°
2026-04-26 07:18 6.05457 125.09911 514 ft 14 kts
2026-04-26 07:18 6.05527 125.09903 514 ft 9 kts 352°
2026-04-26 07:18 6.05547 125.09900 514 ft 9 kts 353°
2026-04-26 07:19 6.05700 125.09884 514 ft 4 kts 10°
2026-04-26 07:19 6.05711 125.09897 514 ft 2 kts 68°
2026-04-26 07:20 6.05711 125.09904 514 ft 1 kts 87°
2026-04-26 07:20 6.05710 125.09918 514 ft 4 kts 89°
2026-04-26 07:20 6.05714 125.09949 514 ft 5 kts 83°
2026-04-26 07:20 6.05715 125.09961 514 ft 0 kts 83°